Flag for India Weather past 2 weeks in Firozpur, Punjab, India

Now
82 °F

Clear.


Feels Like: 85 °F
Forecast: 73 / 101 °F
Wind: No wind

Location: Lahore Airport


UV Index: 7 (High)

Visibility: 2 mi


Pressure: 29.83 "Hg

Humidity: 58%

Dew point: 66 °F

Location of FirozpurLocation

Historic Weather in Firozpur

°F

Firozpur temperature yesterday

Maximum temperature yesterday: 97 °F (at 4:25 PM)
Minimum temperature yesterday: 70 °F (at 5:00 AM)
Average temperature yesterday: 83 °F

Past Weeks' High & Low Weather Summary

 TemperatureHumidityPressure
High97 °F (Apr 23, 4:25 PM)100% (Apr 18, 5:25 PM)30.01 "Hg (Apr 18, 5:25 PM)
Low59 °F (Apr 19, 2:25 AM)22% (Apr 10, 5:25 PM)29.74 "Hg (Apr 12, 4:00 PM)
Average78 °F54%29.88 "Hg
* Reported Apr 8 10:55 PM — Apr 23 11:25 PM, Firozpur, Weather by CustomWeather, © 2014

Note: Actual official high and low records may vary slightly from our data, if they occured in-between our weather recording intervals... More about our weather records

Advertising

Historic Weather Conditions — Data for Previous 24 hours

 ConditionsComfort  
Time TempWeatherWind HumidityBarometerVisibility
11:25 PM
Apr 23
82 °FClear.No wind58%29.83 "Hg2 mi
10:55 PM84 °FClear.No wind55%29.83 "Hg3 mi
10:25 PM84 °FClear.No wind55%29.83 "Hg4 mi
9:25 PM86 °FClear.5 mph55%29.83 "Hg4 mi
8:55 PM88 °FClear.3 mph55%29.80 "Hg4 mi
8:25 PM88 °FClear.3 mph55%29.80 "Hg4 mi
7:55 PM90 °FPassing clouds.No wind55%29.77 "Hg4 mi
7:25 PM91 °FPassing clouds.3 mph52%29.77 "Hg4 mi
6:55 PM91 °FClear.5 mph52%29.77 "Hg4 mi
6:25 PM93 °FClear.6 mph49%29.77 "Hg4 mi
5:55 PM95 °FClear.6 mph47%29.77 "Hg5 mi
5:25 PM95 °FClear.7 mph47%29.77 "Hg5 mi
4:55 PM97 °FClear.3 mph42%29.80 "Hg5 mi
4:25 PM97 °FClear.8 mph42%29.80 "Hg5 mi
3:55 PM95 °FClear.3 mph41%29.80 "Hg5 mi
3:25 PM95 °FClear.5 mph41%29.80 "Hg5 mi
2:25 PM93 °FClear.6 mph44%29.86 "Hg5 mi
1:55 PM91 °FClear.7 mph46%29.86 "Hg5 mi
1:25 PM91 °FClear.5 mph46%29.86 "Hg5 mi
12:55 PM90 °FClear.8 mph46%29.89 "Hg5 mi
12:25 PM90 °FClear.9 mph46%29.92 "Hg5 mi
11:55 AM88 °FPassing clouds.7 mph49%29.92 "Hg4 mi
11:25 AM86 °FPassing clouds.7 mph52%29.95 "Hg4 mi
10:55 AM82 °FPassing clouds.8 mph55%29.95 "Hg4 mi
10:25 AM82 °FPassing clouds.7 mph55%29.95 "Hg4 mi
9:55 AM81 °FPassing clouds.6 mph58%29.95 "Hg4 mi
9:25 AM79 °FPassing clouds.5 mph58%29.95 "Hg4 mi
8:55 AM77 °FPassing clouds.6 mph61%29.92 "Hg4 mi
8:25 AM75 °FClear.5 mph65%29.92 "Hg3 mi
7:55 AM75 °FPassing clouds.No wind69%29.92 "Hg2 mi
7:25 AM72 °FPassing clouds.3 mph73%29.92 "Hg2 mi
7:00 AM72 °FScattered clouds.3 mph73%29.92 "Hg2 mi
6:30 AM70 °FScattered clouds.No wind78%29.89 "Hg2 mi
5:30 AM70 °FClear.No wind78%29.89 "Hg2 mi
5:00 AM70 °FClear.No wind78%29.89 "Hg2 mi
4:30 AM72 °FClear.No wind73%29.89 "Hg2 mi
4:00 AM72 °FClear.No wind73%29.89 "Hg2 mi
3:30 AM73 °FClear.No wind69%29.89 "Hg2 mi
3:00 AM73 °FClear.No wind69%29.89 "Hg2 mi
2:25 AM75 °FClear.No wind69%29.92 "HgN/A
1:55 AM75 °FClear.No wind65%29.92 "HgN/A
1:25 AM75 °FClear.No wind65%29.92 "Hg2 mi
12:55 AM77 °FClear.No wind61%29.95 "Hg3 mi
12:25 AM77 °FSmoke.No wind61%29.95 "Hg3 mi
Weather by CustomWeather, © 2014

See weather overview